TimeCDT,TemperatureF,Dew PointF,Humidity,Sea Level PressureIn,VisibilityMPH,Wind Direction,Wind SpeedMPH,Gust SpeedMPH,PrecipitationIn,Events,Conditions,WindDirDegrees,DateUTC
12:15 AM,45.5,40.1,81,30.08,10.0,Calm,Calm,-,N/A,,Clear,0,2013-06-18 05:15:00
12:35 AM,45.3,40.8,84,30.08,10.0,Calm,Calm,-,N/A,,Clear,0,2013-06-18 05:35:00
12:55 AM,44.2,41.0,88,30.09,10.0,Calm,Calm,-,N/A,,Clear,0,2013-06-18 05:55:00
1:15 AM,44.1,40.5,87,30.09,10.0,Calm,Calm,-,N/A,,Clear,0,2013-06-18 06:15:00
1:35 AM,41.7,38.8,89,30.09,10.0,Calm,Calm,-,N/A,,Clear,0,2013-06-18 06:35:00
1:55 AM,43.5,40.3,88,30.09,10.0,NNE,3.5,-,N/A,,Clear,30,2013-06-18 06:55:00
2:15 AM,45.5,39.2,79,30.09,10.0,NE,4.6,-,N/A,,Clear,50,2013-06-18 07:15:00
2:35 AM,44.8,36.3,72,30.10,10.0,Calm,Calm,-,N/A,,Clear,0,2013-06-18 07:35:00
2:55 AM,43.5,35.8,74,30.10,10.0,Calm,Calm,-,N/A,,Clear,0,2013-06-18 07:55:00
3:15 AM,41.4,36.5,83,30.10,10.0,Calm,Calm,-,N/A,,Clear,0,2013-06-18 08:15:00
3:35 AM,44.1,35.8,73,30.10,10.0,Calm,Calm,-,N/A,,Clear,0,2013-06-18 08:35:00
3:55 AM,39.2,34.9,84,30.10,10.0,Calm,Calm,-,N/A,,Clear,0,2013-06-18 08:55:00
4:15 AM,39.2,35.6,87,30.11,10.0,Calm,Calm,-,N/A,,Clear,0,2013-06-18 09:15:00
4:35 AM,39.2,35.8,88,30.11,10.0,Calm,Calm,-,N/A,,Clear,0,2013-06-18 09:35:00
4:55 AM,40.3,37.0,88,30.11,10.0,Calm,Calm,-,N/A,,Clear,0,2013-06-18 09:55:00
5:15 AM,36.5,34.0,91,30.12,10.0,Calm,Calm,-,N/A,,Clear,0,2013-06-18 10:15:00
5:35 AM,37.4,34.7,90,30.13,10.0,Calm,Calm,-,N/A,,Clear,0,2013-06-18 10:35:00
5:55 AM,39.2,36.0,88,30.12,10.0,Calm,Calm,-,N/A,,Clear,0,2013-06-18 10:55:00
6:15 AM,41.4,38.7,90,30.13,10.0,Calm,Calm,-,N/A,,Clear,0,2013-06-18 11:15:00
6:35 AM,44.8,39.7,82,30.13,10.0,Calm,Calm,-,N/A,,Clear,0,2013-06-18 11:35:00
6:55 AM,49.3,42.1,76,30.14,10.0,NNE,3.5,-,N/A,,Clear,30,2013-06-18 11:55:00
7:15 AM,51.8,42.3,70,30.14,10.0,Calm,Calm,-,N/A,,Clear,0,2013-06-18 12:15:00
7:35 AM,51.8,40.8,66,30.15,10.0,Calm,Calm,-,N/A,,Clear,0,2013-06-18 12:35:00
7:55 AM,54.5,40.8,60,30.15,10.0,ENE,3.5,-,N/A,,Clear,70,2013-06-18 12:55:00
8:15 AM,56.8,41.5,57,30.15,10.0,East,3.5,-,N/A,,Clear,90,2013-06-18 13:15:00
8:35 AM,56.8,39.7,53,30.15,10.0,ENE,4.6,-,N/A,,Clear,70,2013-06-18 13:35:00
8:55 AM,57.4,39.7,52,30.16,10.0,ESE,3.5,-,N/A,,Clear,120,2013-06-18 13:55:00
9:15 AM,59.4,39.0,47,30.15,10.0,East,5.8,-,N/A,,Clear,100,2013-06-18 14:15:00
9:35 AM,59.4,38.8,47,30.16,10.0,ENE,6.9,-,N/A,,Clear,60,2013-06-18 14:35:00
9:55 AM,61.9,39.9,44,30.16,10.0,ESE,6.9,-,N/A,,Clear,110,2013-06-18 14:55:00
10:15 AM,61.9,39.0,43,30.16,10.0,East,5.8,-,N/A,,Clear,100,2013-06-18 15:15:00
10:35 AM,61.9,38.3,42,30.15,10.0,East,6.9,-,N/A,,Clear,100,2013-06-18 15:35:00
10:55 AM,63.0,39.0,41,30.15,10.0,SSE,9.2,-,N/A,,Clear,150,2013-06-18 15:55:00
11:15 AM,63.1,37.0,38,30.15,10.0,SE,8.1,-,N/A,,Clear,130,2013-06-18 16:15:00
11:35 AM,63.1,37.2,38,30.15,10.0,East,8.1,-,N/A,,Clear,80,2013-06-18 16:35:00
11:55 AM,63.9,37.6,38,30.15,10.0,ENE,6.9,-,N/A,,Clear,60,2013-06-18 16:55:00
12:15 PM,65.1,38.3,37,30.14,10.0,SE,6.9,-,N/A,,Clear,130,2013-06-18 17:15:00
12:35 PM,66.0,39.6,38,30.14,10.0,SSW,3.5,-,N/A,,Clear,210,2013-06-18 17:35:00
12:55 PM,66.0,38.3,36,30.14,10.0,South,5.8,-,N/A,,Clear,170,2013-06-18 17:55:00
1:15 PM,67.3,38.7,35,30.13,10.0,East,9.2,-,N/A,,Clear,100,2013-06-18 18:15:00
1:35 PM,67.1,37.0,33,30.13,10.0,NNE,8.1,-,N/A,,Clear,30,2013-06-18 18:35:00
1:55 PM,68.2,37.8,33,30.13,10.0,North,4.6,-,N/A,,Clear,10,2013-06-18 18:55:00
2:15 PM,67.3,37.8,34,30.13,10.0,Calm,Calm,-,N/A,,Clear,0,2013-06-18 19:15:00
2:35 PM,69.4,38.3,32,30.13,10.0,Calm,Calm,-,N/A,,Clear,0,2013-06-18 19:35:00
2:55 PM,69.3,39.7,34,30.12,10.0,SE,4.6,-,N/A,,Clear,130,2013-06-18 19:55:00
3:15 PM,70.7,39.6,32,30.12,10.0,SE,6.9,-,N/A,,Clear,130,2013-06-18 20:15:00
3:35 PM,70.7,39.2,32,30.12,10.0,NNW,4.6,-,N/A,,Clear,340,2013-06-18 20:35:00
3:55 PM,72.0,39.9,31,30.12,10.0,SSE,9.2,-,N/A,,Clear,160,2013-06-18 20:55:00
4:15 PM,69.8,37.6,31,30.12,10.0,SSE,5.8,-,N/A,,Clear,150,2013-06-18 21:15:00
4:35 PM,72.0,38.1,29,30.11,10.0,South,8.1,-,N/A,,Clear,180,2013-06-18 21:35:00
4:55 PM,71.6,37.4,29,30.10,10.0,Calm,Calm,-,N/A,,Clear,0,2013-06-18 21:55:00
5:15 PM,72.0,37.8,29,30.10,10.0,Calm,Calm,-,N/A,,Clear,0,2013-06-18 22:15:00
5:35 PM,72.0,39.0,30,30.10,10.0,SE,4.6,-,N/A,,Clear,130,2013-06-18 22:35:00
5:55 PM,71.6,39.0,31,30.10,10.0,Calm,Calm,-,N/A,,Clear,0,2013-06-18 22:55:00
6:15 PM,72.0,38.7,30,30.09,10.0,SE,6.9,-,N/A,,Clear,130,2013-06-18 23:15:00
6:35 PM,71.8,38.7,30,30.09,10.0,Calm,Calm,-,N/A,,Clear,0,2013-06-18 23:35:00
6:55 PM,72.0,39.6,31,30.09,10.0,SE,4.6,-,N/A,,Clear,130,2013-06-18 23:55:00
7:15 PM,69.8,37.6,31,30.09,10.0,Calm,Calm,-,N/A,,Clear,0,2013-06-19 00:15:00
7:35 PM,69.4,38.1,32,30.09,10.0,Calm,Calm,-,N/A,,Clear,0,2013-06-19 00:35:00
7:55 PM,69.4,38.3,32,30.09,10.0,Calm,Calm,-,N/A,,Clear,0,2013-06-19 00:55:00
8:15 PM,64.4,43.3,46,30.09,10.0,Calm,Calm,-,N/A,,Clear,0,2013-06-19 01:15:00
8:35 PM,61.9,46.9,58,30.09,10.0,Calm,Calm,-,N/A,,Clear,0,2013-06-19 01:35:00
8:55 PM,59.4,45.9,61,30.09,10.0,Calm,Calm,-,N/A,,Clear,0,2013-06-19 01:55:00
9:15 PM,59.4,49.3,69,30.09,10.0,Calm,Calm,-,N/A,,Clear,0,2013-06-19 02:15:00
9:35 PM,56.8,48.9,75,30.10,10.0,Calm,Calm,-,N/A,,Clear,0,2013-06-19 02:35:00
9:55 PM,56.8,48.2,73,30.10,10.0,Calm,Calm,-,N/A,,Clear,0,2013-06-19 02:55:00
10:15 PM,51.8,45.5,79,30.10,10.0,Calm,Calm,-,N/A,,Clear,0,2013-06-19 03:15:00
10:35 PM,52.5,46.8,81,30.10,10.0,Calm,Calm,-,N/A,,Clear,0,2013-06-19 03:35:00
10:55 PM,52.0,46.8,82,30.10,10.0,South,3.5,-,N/A,,Clear,180,2013-06-19 03:55:00
11:15 PM,56.8,47.5,71,30.10,10.0,South,4.6,-,N/A,,Clear,170,2013-06-19 04:15:00
11:35 PM,56.8,47.3,70,30.10,10.0,South,4.6,-,N/A,,Clear,170,2013-06-19 04:35:00
11:55 PM,56.8,47.3,70,30.10,10.0,South,5.8,-,N/A,,Clear,170,2013-06-19 04:55:00